Location: Habighorst
(52.7089°N, 10.2278°E)
Time: 23:48:11
(UTC+00:00)

CZ-2C R/B - Pass Details

Date: 13 January 2026
Orbit: 662 x 774 km, 98.4° (Epoch: 18 February)

Event Time Altitude Azimuth Distance (km) Brightness Sun altitude
Rises 04:22:29 0° 11° (N) 3,070 5.7 -26.7°
Reaches altitude 10° 04:24:49 10° 5° (N) 2,135 4.8 -26.4°
Enters shadow 04:25:35 14° 2° (N) 1,847 4.5 -26.2°
